Idabel, OK

1:55 AM CDT on April 25, 2018 (GMT -0500)
Idabel

Weather History for K4O4 - May, 2014

Change the Weather History Date:

Saturday, May 10, 2014

  Actual Average (KPRX) Record (KPRX)
Temperature  
Mean Temperature 73 °F -  
Max Temperature 86 °F 77 °F 89 °F (2016)
Min Temperature 60 °F 58 °F 48 °F (1997)
Cooling Degree Days 8    
Growing Degree Days 23 (Base 50)    
Moisture  
Dew Point 65 °F    
Average Humidity 77    
Maximum Humidity 100    
Minimum Humidity 48    
Precipitation  
Precipitation 0.00 in - - ()
Sea Level Pressure  
Sea Level Pressure 29.89 in    
Wind  
Wind Speed 5 mph (SSE)    
Max Wind Speed 15 mph    
Max Gust Speed 20 mph    
Visibility 9 miles    
Events      
Averages and records for this station are not official NWS values.
T = Trace of Precipitation, MM = Missing Value Source: NWS Daily Summary

Daily Weather History Graph

Daily Weather History Graph

Search for Another Location

Airport or City:

Astronomy

May. 10, 2014 Rise Set
Actual Time 6:22 AM CDT 8:10 PM CDT
Civil Twilight 5:54 AM CDT 8:37 PM CDT
Nautical Twilight 5:21 AM CDT 9:10 PM CDT
Astronomical Twilight 4:47 AM CDT 9:45 PM CDT
Moon 4:17 PM CDT (5/10) 3:43 AM CDT (5/10)
Length of Visible Light 14h 42m
Length of Day
13h 47m
Waxing Gibbous, 82% of the Moon is Illuminated
May 10
Waxing Gibbous
May 14
Full
May 21
Last Quarter
May 28
New
Jun 5
First Quarter

Hourly Weather History & Observations

Time (CDT) Temp. Heat Index Dew Point Humidity Pressure Visibility Wind Dir Wind Speed Gust Speed Precip Events Conditions
12:01 AM 66.2 °F - 64.4 °F 94% 29.91 in 10.0 mi SSE 4.6 mph - N/A   Mostly Cloudy
12:21 AM 66.2 °F - 64.4 °F 94% 29.92 in 10.0 mi Calm Calm - N/A   Mostly Cloudy
12:41 AM 66.2 °F - 62.6 °F 88% 29.93 in 10.0 mi West 3.5 mph - N/A   Scattered Clouds
1:01 AM 66.2 °F - 62.6 °F 88% 29.93 in 10.0 mi Calm Calm - N/A   Scattered Clouds
1:21 AM 66.2 °F - 62.6 °F 88% 29.94 in 10.0 mi South 8.1 mph - N/A   Scattered Clouds
1:41 AM 66.2 °F - 62.6 °F 88% 29.93 in 10.0 mi SSE 4.6 mph - N/A   Mostly Cloudy
2:01 AM 64.4 °F - 62.6 °F 94% 29.93 in 10.0 mi SSW 3.5 mph - N/A   Scattered Clouds
2:21 AM 64.4 °F - 62.6 °F 94% 29.92 in 10.0 mi South 4.6 mph - N/A   Clear
2:41 AM 64.4 °F - 62.6 °F 94% 29.90 in 10.0 mi SSE 3.5 mph - N/A   Clear
3:01 AM 62.6 °F - 60.8 °F 94% 29.89 in 10.0 mi South 3.5 mph - N/A   Clear
3:21 AM 62.6 °F - 60.8 °F 94% 29.89 in 10.0 mi Calm Calm - N/A   Clear
3:41 AM 62.6 °F - 59.0 °F 88% 29.89 in 10.0 mi ENE 3.5 mph - N/A   Clear
4:01 AM 62.6 °F - 60.8 °F 94% 29.89 in 10.0 mi ESE 4.6 mph - N/A   Clear
4:21 AM 62.6 °F - 60.8 °F 94% 29.89 in 10.0 mi ESE 4.6 mph - N/A   Clear
5:01 AM 62.6 °F - 60.8 °F 94% 29.90 in 10.0 mi ESE 4.6 mph - N/A   Clear
5:21 AM 60.8 °F - 60.8 °F 100% 29.90 in 10.0 mi Calm Calm - N/A   Clear
5:41 AM 60.8 °F - 59.0 °F 94% 29.91 in 10.0 mi East 3.5 mph - N/A   Clear
6:01 AM 60.8 °F - 59.0 °F 94% 29.91 in 10.0 mi East 4.6 mph - N/A   Clear
6:21 AM 60.8 °F - 59.0 °F 94% 29.92 in 10.0 mi East 4.6 mph - N/A   Clear
6:41 AM 60.8 °F - 60.8 °F 100% 29.92 in 10.0 mi Calm Calm - N/A   Mostly Cloudy
7:01 AM 62.6 °F - 60.8 °F 94% 29.93 in 10.0 mi ESE 4.6 mph - N/A   Overcast
7:21 AM 62.6 °F - 60.8 °F 94% 29.93 in 10.0 mi ESE 4.6 mph - N/A   Overcast
7:41 AM 64.4 °F - 62.6 °F 94% 29.93 in 7.0 mi SSE 8.1 mph - N/A   Overcast
8:01 AM 64.4 °F - 62.6 °F 94% 29.94 in 5.0 mi SSE 6.9 mph - N/A   Overcast
8:21 AM 64.4 °F - 62.6 °F 94% 29.94 in 3.0 mi South 6.9 mph - N/A   Overcast
8:41 AM 66.2 °F - 64.4 °F 94% 29.94 in 3.0 mi South 6.9 mph - N/A   Overcast
9:01 AM 66.2 °F - 64.4 °F 94% 29.94 in 4.0 mi SSW 3.5 mph - N/A   Overcast
9:21 AM 68.0 °F - 66.2 °F 94% 29.94 in 5.0 mi South 4.6 mph - N/A   Overcast
9:42 AM 69.8 °F - 66.2 °F 88% 29.94 in 7.0 mi South 4.6 mph - N/A   Mostly Cloudy
10:02 AM 71.6 °F - 66.2 °F 83% 29.94 in 7.0 mi South 5.8 mph - N/A   Scattered Clouds
10:21 AM 73.4 °F - 66.2 °F 78% 29.94 in 10.0 mi Calm Calm - N/A   Scattered Clouds
10:41 AM 75.2 °F - 66.2 °F 73% 29.94 in 10.0 mi South 4.6 mph - N/A   Mostly Cloudy
11:02 AM 77.0 °F - 66.2 °F 69% 29.94 in 10.0 mi Calm Calm - N/A   Mostly Cloudy
11:23 AM 78.8 °F - 66.2 °F 65% 29.94 in 10.0 mi South 4.6 mph - N/A   Scattered Clouds
11:41 AM 78.8 °F - 66.2 °F 65% 29.94 in 10.0 mi South 4.6 mph - N/A   Scattered Clouds
12:01 PM 78.8 °F - 66.2 °F 65% 29.93 in 10.0 mi South 4.6 mph - N/A   Scattered Clouds
12:21 PM 80.6 °F 82.7 °F 66.2 °F 61% 29.92 in 10.0 mi South 10.4 mph - N/A   Scattered Clouds
12:41 PM 80.6 °F 82.7 °F 66.2 °F 61% 29.92 in 10.0 mi South 8.1 mph - N/A   Scattered Clouds
1:01 PM 82.4 °F 84.6 °F 66.2 °F 58% 29.91 in 10.0 mi South 10.4 mph - N/A   Scattered Clouds
1:21 PM 82.4 °F 84.6 °F 66.2 °F 58% 29.90 in 10.0 mi SSW 11.5 mph - N/A   Scattered Clouds
1:41 PM 82.4 °F 84.6 °F 66.2 °F 58% 29.90 in 10.0 mi South 9.2 mph - N/A   Scattered Clouds
2:01 PM 82.4 °F 84.6 °F 66.2 °F 58% 29.89 in 10.0 mi South 10.4 mph - N/A   Scattered Clouds
2:21 PM 84.2 °F 85.6 °F 64.4 °F 51% 29.89 in 10.0 mi South 8.1 mph 17.3 mph N/A   Clear
2:41 PM 84.2 °F 85.6 °F 64.4 °F 51% 29.88 in 10.0 mi South 9.2 mph - N/A   Clear
3:01 PM 84.2 °F 85.6 °F 64.4 °F 51% 29.87 in 10.0 mi South 11.5 mph - N/A   Scattered Clouds
3:21 PM 84.2 °F 85.6 °F 64.4 °F 51% 29.87 in 10.0 mi SSE 9.2 mph - N/A   Scattered Clouds
4:01 PM 84.2 °F 86.6 °F 66.2 °F 55% 29.85 in 10.0 mi South 12.7 mph 19.6 mph N/A   Scattered Clouds
4:21 PM 86.0 °F 87.3 °F 64.4 °F 48% 29.84 in 10.0 mi South 12.7 mph - N/A   Scattered Clouds
4:41 PM 84.2 °F 86.6 °F 66.2 °F 55% 29.84 in 10.0 mi South 11.5 mph 16.1 mph N/A   Clear
5:01 PM 84.2 °F 85.6 °F 64.4 °F 51% 29.84 in 10.0 mi SSE 11.5 mph 17.3 mph N/A   Clear
5:21 PM 84.2 °F 86.6 °F 66.2 °F 55% 29.84 in 10.0 mi South 10.4 mph 18.4 mph N/A   Scattered Clouds
5:41 PM 84.2 °F 86.6 °F 66.2 °F 55% 29.83 in 10.0 mi South 15.0 mph 18.4 mph N/A   Scattered Clouds
6:01 PM 84.2 °F 86.6 °F 66.2 °F 55% 29.83 in 10.0 mi South 12.7 mph 16.1 mph N/A   Clear
6:21 PM 84.2 °F 85.6 °F 64.4 °F 51% 29.83 in 10.0 mi South 10.4 mph - N/A   Clear
6:41 PM 84.2 °F 86.6 °F 66.2 °F 55% 29.83 in 10.0 mi SSE 10.4 mph - N/A   Scattered Clouds
7:01 PM 82.4 °F 84.6 °F 66.2 °F 58% 29.83 in 10.0 mi SSE 12.7 mph - N/A   Scattered Clouds
7:21 PM 82.4 °F 84.6 °F 66.2 °F 58% 29.83 in 10.0 mi SSE 5.8 mph - N/A   Clear
7:41 PM 80.6 °F 82.7 °F 66.2 °F 61% 29.83 in 10.0 mi SSE 6.9 mph - N/A   Clear
8:01 PM 78.8 °F - 66.2 °F 65% 29.83 in 10.0 mi SSE 5.8 mph - N/A   Clear
8:21 PM 77.0 °F - 68.0 °F 74% 29.83 in 10.0 mi SE 5.8 mph - N/A   Clear
9:01 PM 75.2 °F - 68.0 °F 78% 29.84 in 10.0 mi SE 6.9 mph - N/A   Clear
9:21 PM 73.4 °F - 68.0 °F 83% 29.85 in 10.0 mi SE 6.9 mph - N/A   Clear
9:41 PM 73.4 °F - 68.0 °F 83% 29.85 in 10.0 mi SE 8.1 mph - N/A   Clear
10:01 PM 73.4 °F - 68.0 °F 83% 29.85 in 10.0 mi SE 6.9 mph - N/A   Clear
10:21 PM 73.4 °F - 68.0 °F 83% 29.86 in 10.0 mi SE 8.1 mph - N/A   Clear
10:41 PM 73.4 °F - 68.0 °F 83% 29.87 in 10.0 mi SSE 9.2 mph - N/A   Clear
11:01 PM 73.4 °F - 68.0 °F 83% 29.87 in 10.0 mi SE 10.4 mph - N/A   Scattered Clouds
11:21 PM 73.4 °F - 68.0 °F 83% 29.87 in 10.0 mi SE 9.2 mph - N/A   Scattered Clouds
11:41 PM 73.4 °F - 68.0 °F 83% 29.87 in 10.0 mi SE 9.2 mph - N/A   Clear